Location: Gwatt
(46.7204°N, 7.6223°E)
Time: 14:09:01
(UTC+00:00)

S-56A Canister/Altair - Pass Details

Date: 24 January 2021
Orbit: 632 x 2501 km, 38.9° (Epoch: 28 February)

Event Time Altitude Azimuth Distance (km) Brightness Sun altitude
Rises 05:06:15 0° 261° (W) 2,938 - -19.8°
Reaches altitude 10° 05:08:35 10° 250° (WSW) 2,091 - -19.4°
Exits shadow 05:10:45 23° 228° (SW) 1,479 8.6 -19.0°
Maximum altitude 05:12:43 31° 188° (S) 1,308 8.7 -18.7°
Drops below altitude 10° 05:17:55 10° 128° (SE) 2,652 11.2 -17.8°
Sets 05:21:16 0° 119° (ESE) 3,882 12.5 -17.2°
